GALAXY 34 (G-34)

Last updated on Tue Sep 16 2025 00:02:50 GMT+0000 (Coordinated Universal Time)

1 54027U 22128B 25258.55900917 .00000000 00000+0 00000+0 0 9999 2 54027 0.0196 190.2672 0001442 342.9698 253.8401 1.00270328 11159
UTC large
Height (km)
Speed (km/s)
/
Latitude / Longitude
Inclination (degrees)
Orbital Period (minutes)
Azimuth
Elevation
Range (km)
Doppler Factor

Next 0 passes for location: London (51.5072 / 0.1276)

Sorry there are no passes over London.